| time (UTC) | temp F | wind direction | speed MPH | gust MPH | rain 1hr in | rain 24hr in | rain mn in | humidity % | barometer mb |
| 20260902085707 | 67 | 238 | 4.0 | 9.0 | 0.00 | 0.03 | 0.00 | 71 | 1018.8 |
| 20260902084706 | 67 | 238 | 5.0 | 12.0 | 0.00 | 0.03 | 0.00 | 71 | 1018.9 |
| 20260902083706 | 67 | 270 | 7.0 | 14.0 | 0.00 | 0.03 | 0.00 | 72 | 1018.8 |
| 20260902082706 | 67 | 191 | 5.0 | 10.0 | 0.00 | 0.03 | 0.00 | 74 | 1018.7 |
| 20260902081707 | 66 | 242 | 6.0 | 11.0 | 0.00 | 0.03 | 0.00 | 74 | 1018.7 |
| 20260902080707 | 65 | 262 | 4.0 | 10.0 | 0.00 | 0.03 | 0.00 | 75 | 1018.6 |
| 20260902075707 | 65 | 191 | 3.0 | 7.0 | 0.00 | 0.03 | 0.00 | 75 | 1018.7 |
| 20260902073707 | 63 | 249 | 3.0 | 7.0 | 0.00 | 0.03 | 0.00 | 81 | 1018.6 |
| 20260902072707 | 62 | 255 | 3.0 | 6.0 | 0.00 | 0.03 | 0.00 | 81 | 1018.5 |
| 20260902065707 | 60 | 257 | 4.0 | 9.0 | 0.00 | 0.03 | 0.00 | 86 | 1018.7 |
| 20260902063707 | 58 | 225 | 1.0 | 4.0 | 0.00 | 0.03 | 0.00 | 91 | 1018.5 |
| 20260902061707 | 57 | 230 | 1.0 | 3.0 | 0.00 | 0.03 | 0.00 | 91 | 1018.4 |
| 20260902060707 | 57 | 230 | 0.0 | 1.0 | 0.00 | 0.03 | 0.00 | 91 | 1018.3 |
| 20260902055707 | 57 | 230 | 1.0 | 4.0 | 0.00 | 0.03 | 0.00 | 91 | 1018.1 |
| 20260902053707 | 56 | 313 | 0.0 | 2.0 | 0.00 | 0.03 | 0.00 | 91 | 1018.2 |
| 20260902052707 | 56 | 312 | 0.0 | 0.0 | 0.00 | 0.03 | 0.00 | 90 | 1018.2 |
| 20260902051707 | 56 | 312 | 0.0 | 0.0 | 0.00 | 0.03 | 0.00 | 90 | 1018.2 |
| 20260902045708 | 56 | 312 | 0.0 | 0.0 | 0.00 | 0.03 | 0.00 | 90 | 1018.1 |
| 20260902044707 | 56 | 312 | 0.0 | 0.0 | 0.00 | 0.03 | 0.00 | 89 | 1018.0 |
| 20260902042707 | 57 | 312 | 0.0 | 0.0 | 0.00 | 0.03 | 0.00 | 89 | 1018.1 |
| 20260902041707 | 57 | 312 | 0.0 | 0.0 | 0.00 | 0.03 | 0.00 | 89 | 1018.1 |
| 20260902040707 | 57 | 312 | 0.0 | 0.0 | 0.00 | 0.03 | 0.00 | 90 | 1017.9 |
| 20260902034708 | 57 | 312 | 0.0 | 0.0 | 0.00 | 0.03 | 0.00 | 89 | 1018.0 |
| 20260902033708 | 57 | 312 | 0.0 | 0.0 | 0.00 | 0.03 | 0.00 | 89 | 1018.1 |
| 20260902032708 | 57 | 312 | 0.0 | 0.0 | 0.00 | 0.03 | 0.00 | 89 | 1018.1 |
| 20260902030708 | 57 | 312 | 0.0 | 0.0 | 0.00 | 0.03 | 0.00 | 90 | 1018.1 |
| 20260902024708 | 58 | 312 | 0.0 | 0.0 | 0.00 | 0.03 | 0.00 | 89 | 1018.1 |
| 20260902023708 | 58 | 312 | 0.0 | 0.0 | 0.00 | 0.03 | 0.00 | 89 | 1018.0 |
| 20260902022708 | 58 | 312 | 0.0 | 0.0 | 0.00 | 0.03 | 0.00 | 89 | 1017.9 |
| 20260902021708 | 58 | 312 | 0.0 | 0.0 | 0.00 | 0.03 | 0.00 | 89 | 1018.1 |
| 20260902020708 | 58 | 312 | 0.0 | 0.0 | 0.00 | 0.03 | 0.00 | 89 | 1018.1 |
| 20260902014708 | 58 | 312 | 0.0 | 0.0 | 0.00 | 0.03 | 0.00 | 90 | 1018.4 |
| 20260902013708 | 58 | 312 | 0.0 | 0.0 | 0.00 | 0.03 | 0.00 | 90 | 1018.5 |
| 20260902012708 | 58 | 312 | 0.0 | 0.0 | 0.00 | 0.03 | 0.00 | 90 | 1018.3 |
| 20260902011708 | 58 | 312 | 0.0 | 0.0 | 0.00 | 0.03 | 0.00 | 90 | 1018.1 |
| 20260902010708 | 58 | 312 | 0.0 | 0.0 | 0.00 | 0.03 | 0.00 | 90 | 1018.1 |
| 20260902004708 | 58 | 312 | 0.0 | 0.0 | 0.00 | 0.03 | 0.00 | 90 | 1018.2 |
| 20260902002709 | 57 | 312 | 0.0 | 0.0 | 0.00 | 0.03 | 0.00 | 90 | 1018.4 |
| 20260902001709 | 57 | 312 | 0.0 | 0.0 | 0.00 | 0.03 | 0.00 | 90 | 1018.5 |
| 20260901235709 | 57 | 312 | 0.0 | 0.0 | 0.00 | 0.03 | 0.00 | 90 | 1018.6 |
| 20260901234709 | 57 | 312 | 0.0 | 0.0 | 0.00 | 0.03 | 0.00 | 90 | 1018.5 |
| 20260901232709 | 56 | 312 | 0.0 | 0.0 | 0.00 | 0.03 | 0.00 | 90 | 1018.6 |
| 20260901231709 | 56 | 312 | 0.0 | 0.0 | 0.00 | 0.03 | 0.00 | 89 | 1018.7 |
| 20260901230709 | 56 | 312 | 0.0 | 0.0 | 0.00 | 0.03 | 0.00 | 89 | 1018.6 |
| 20260901224709 | 56 | 312 | 0.0 | 0.0 | 0.00 | 0.03 | 0.00 | 88 | 1018.6 |
| 20260901223709 | 57 | 312 | 0.0 | 0.0 | 0.00 | 0.03 | 0.00 | 89 | 1018.6 |
| 20260901222709 | 57 | 312 | 0.0 | 0.0 | 0.00 | 0.03 | 0.00 | 89 | 1018.8 |
| 20260901221709 | 57 | 312 | 0.0 | 0.0 | 0.00 | 0.03 | 0.00 | 89 | 1018.8 |
| 20260901215709 | 56 | 312 | 0.0 | 0.0 | 0.00 | 0.03 | 0.03 | 89 | 1019.0 |
| 20260901214709 | 56 | 312 | 0.0 | 0.0 | 0.00 | 0.03 | 0.03 | 89 | 1019.1 |
| 20260901213709 | 56 | 312 | 0.0 | 0.0 | 0.00 | 0.03 | 0.03 | 87 | 1019.1 |
| 20260901212709 | 56 | 312 | 0.0 | 0.0 | 0.00 | 0.03 | 0.03 | 87 | 1019.0 |
| 20260901211709 | 57 | 312 | 0.0 | 0.0 | 0.00 | 0.03 | 0.03 | 87 | 1018.9 |
| 20260901205710 | 57 | 312 | 0.0 | 0.0 | 0.00 | 0.03 | 0.03 | 86 | 1019.0 |
| 20260901204709 | 57 | 312 | 0.0 | 0.0 | 0.00 | 0.03 | 0.03 | 85 | 1018.9 |
| 20260901203710 | 58 | 312 | 0.0 | 0.0 | 0.00 | 0.03 | 0.03 | 85 | 1018.7 |
| 20260901202709 | 58 | 312 | 0.0 | 0.0 | 0.00 | 0.03 | 0.03 | 84 | 1018.7 |
| 20260901201710 | 59 | 312 | 0.0 | 0.0 | 0.00 | 0.03 | 0.03 | 84 | 1018.7 |
| 20260901200710 | 59 | 312 | 0.0 | 0.0 | 0.00 | 0.03 | 0.03 | 84 | 1018.6 |
| 20260901195710 | 60 | 312 | 0.0 | 0.0 | 0.00 | 0.03 | 0.03 | 83 | 1018.6 |
| 20260901193710 | 61 | 312 | 0.0 | 0.0 | 0.00 | 0.03 | 0.03 | 82 | 1018.4 |
| 20260901192710 | 61 | 312 | 0.0 | 0.0 | 0.00 | 0.03 | 0.03 | 81 | 1018.4 |
| 20260901190710 | 63 | 312 | 0.0 | 0.0 | 0.00 | 0.03 | 0.03 | 79 | 1018.5 |
| 20260901185710 | 64 | 312 | 0.0 | 1.0 | 0.00 | 0.03 | 0.03 | 78 | 1018.4 |
| 20260901184710 | 65 | 312 | 0.0 | 2.0 | 0.00 | 0.03 | 0.03 | 75 | 1018.3 |
| 20260901183710 | 66 | 312 | 0.0 | 0.0 | 0.00 | 0.03 | 0.03 | 72 | 1018.3 |
| 20260901182710 | 66 | 312 | 0.0 | 1.0 | 0.00 | 0.03 | 0.03 | 72 | 1018.4 |
| 20260901181710 | 67 | 312 | 0.0 | 2.0 | 0.00 | 0.03 | 0.03 | 71 | 1018.5 |
| 20260901180711 | 67 | 312 | 0.0 | 1.0 | 0.00 | 0.03 | 0.03 | 68 | 1018.4 |
| 20260901175710 | 67 | 312 | 0.0 | 1.0 | 0.00 | 0.03 | 0.03 | 67 | 1018.4 |
| 20260901174710 | 68 | 312 | 1.0 | 2.0 | 0.00 | 0.03 | 0.03 | 67 | 1018.4 |
| 20260901173710 | 68 | 312 | 0.0 | 2.0 | 0.00 | 0.03 | 0.03 | 67 | 1018.4 |
| 20260901171710 | 68 | 312 | 1.0 | 3.0 | 0.00 | 0.03 | 0.03 | 64 | 1018.3 |
| 20260901170710 | 69 | 312 | 2.0 | 4.0 | 0.00 | 0.03 | 0.03 | 63 | 1018.3 |
| 20260901164710 | 69 | 313 | 2.0 | 4.0 | 0.00 | 0.03 | 0.03 | 63 | 1018.2 |
| 20260901163710 | 70 | 318 | 2.0 | 5.0 | 0.00 | 0.03 | 0.03 | 62 | 1018.3 |
| 20260901162710 | 70 | 320 | 2.0 | 4.0 | 0.00 | 0.03 | 0.03 | 62 | 1018.2 |
| 20260901160711 | 71 | 300 | 3.0 | 7.0 | 0.00 | 0.03 | 0.03 | 59 | 1018.2 |
| 20260901155711 | 72 | 326 | 3.0 | 5.0 | 0.00 | 0.03 | 0.03 | 59 | 1018.1 |
| 20260901154711 | 72 | 303 | 3.0 | 9.0 | 0.00 | 0.03 | 0.03 | 62 | 1018.0 |
| 20260901152711 | 72 | 293 | 2.0 | 6.0 | 0.00 | 0.03 | 0.03 | 60 | 1018.1 |
| 20260901151711 | 73 | 305 | 4.0 | 8.0 | 0.00 | 0.03 | 0.03 | 58 | 1018.0 |
| 20260901150711 | 72 | 309 | 3.0 | 6.0 | 0.00 | 0.03 | 0.03 | 62 | 1017.9 |
| 20260901145711 | 72 | 261 | 3.0 | 7.0 | 0.00 | 0.03 | 0.03 | 60 | 1018.0 |
| 20260901144711 | 73 | 252 | 3.0 | 8.0 | 0.00 | 0.03 | 0.03 | 60 | 1017.9 |
| 20260901143711 | 72 | 259 | 2.0 | 5.0 | 0.00 | 0.03 | 0.03 | 61 | 1017.9 |
| 20260901142711 | 72 | 350 | 3.0 | 8.0 | 0.00 | 0.03 | 0.03 | 63 | 1018.1 |
| 20260901141711 | 72 | 294 | 4.0 | 10.0 | 0.00 | 0.03 | 0.03 | 61 | 1018.2 |
| 20260901140711 | 73 | 280 | 3.0 | 9.0 | 0.00 | 0.03 | 0.03 | 62 | 1018.0 |
| 20260901135711 | 72 | 276 | 2.0 | 7.0 | 0.00 | 0.03 | 0.03 | 65 | 1018.1 |
| 20260901134711 | 71 | 292 | 3.0 | 7.0 | 0.00 | 0.03 | 0.03 | 64 | 1018.1 |
| 20260901133711 | 72 | 328 | 2.0 | 8.0 | 0.00 | 0.03 | 0.03 | 65 | 1018.1 |
| 20260901132711 | 72 | 253 | 4.0 | 9.0 | 0.00 | 0.03 | 0.03 | 66 | 1018.2 |
| 20260901131711 | 71 | 358 | 3.0 | 9.0 | 0.00 | 0.03 | 0.03 | 69 | 1018.3 |
| 20260901130711 | 69 | 299 | 4.0 | 9.0 | 0.00 | 0.03 | 0.03 | 72 | 1018.4 |
| 20260901125712 | 68 | 288 | 3.0 | 7.0 | 0.00 | 0.03 | 0.03 | 74 | 1018.3 |
| 20260901124711 | 68 | 230 | 3.0 | 7.0 | 0.00 | 0.03 | 0.03 | 74 | 1018.4 |
| 20260901122712 | 69 | 315 | 4.0 | 10.0 | 0.00 | 0.03 | 0.03 | 72 | 1018.4 |
| 20260901121712 | 70 | 355 | 3.0 | 10.0 | 0.00 | 0.03 | 0.03 | 73 | 1018.3 |
| 20260901120712 | 71 | 269 | 6.0 | 9.0 | 0.00 | 0.03 | 0.03 | 69 | 1018.2 |
| 20260901113710 | 69 | 282 | 4.0 | 10.0 | 0.00 | 0.03 | 0.03 | 78 | 1018.2 |
| 20260901112710 | 68 | 249 | 3.0 | 8.0 | 0.00 | 0.03 | 0.03 | 78 | 1018.3 |
| 20260901111710 | 68 | 279 | 3.0 | 10.0 | 0.00 | 0.03 | 0.03 | 79 | 1018.3 |
| 20260901110710 | 67 | 251 | 6.0 | 10.0 | 0.00 | 0.03 | 0.03 | 81 | 1018.3 |
| 20260901105710 | 67 | 188 | 4.0 | 8.0 | 0.00 | 0.10 | 0.03 | 82 | 1018.2 |
| 20260901104710 | 65 | 259 | 6.0 | 10.0 | 0.01 | 0.10 | 0.03 | 84 | 1018.2 |
| 20260901103710 | 65 | 267 | 4.0 | 7.0 | 0.02 | 0.10 | 0.03 | 85 | 1018.4 |
| 20260901102710 | 64 | 255 | 3.0 | 6.0 | 0.03 | 0.10 | 0.03 | 87 | 1018.3 |
| 20260901100710 | 63 | 302 | 3.0 | 7.0 | 0.03 | 0.10 | 0.03 | 88 | 1018.4 |
| 20260901094710 | 63 | 240 | 6.0 | 11.0 | 0.02 | 0.09 | 0.02 | 85 | 1018.2 |
| 20260901093710 | 64 | 327 | 5.0 | 11.0 | 0.02 | 0.09 | 0.02 | 85 | 1018.1 |
| 20260901092711 | 64 | 253 | 4.0 | 9.0 | 0.00 | 0.07 | 0.00 | 84 | 1017.9 |
| 20260901091710 | 64 | 247 | 5.0 | 9.0 | 0.00 | 0.07 | 0.00 | 84 | 1017.9 |
| 20260901090711 | 64 | 251 | 4.0 | 9.0 | 0.00 | 0.07 | 0.00 | 84 | 1017.9 |